{"data":{"norad_id":62442,"intl_designator":"2024-251L","name":"STARLINK-32291","alt_names":[],"object_type":"PAYLOAD","status":"ACTIVE","operator":null,"country":"US","launch_date":"2024-12-29","launch_site_code":"AFWTR","launch_vehicle":null,"mission":null,"orbit_class":"UNKNOWN","rcs_meters":null,"size_class":null,"mass_kg":null,"dimensions":null,"purposes":["comms"],"wikipedia_slug":null,"has_3d_model":false,"image_url":null,"decayed_at":null,"tle_current":{"epoch":"2026-05-24T22:40:43.871808Z","epoch_age_seconds":83839,"freshness":"FRESH","line1":"1 62442U 24251L   26144.94495222  .00022473  00000+0  76846-3 0  9997","line2":"2 62442  53.1608 341.0895 0001112  72.7990 287.3132 15.30205300 79317","mean_motion":15.302053,"eccentricity":0.0001112,"inclination_deg":53.1608,"raan_deg":341.0895,"arg_perigee_deg":72.799,"mean_anomaly_deg":287.3132,"bstar":0.00076846,"rev_number":7931,"period_min":94.105019764341,"perigee_km":474.43715362993,"apogee_km":475.96133561073,"semimajor_km":6853.3362446203,"source":"CELESTRAK","updated_at":"2026-05-25T13:38:19.659080Z"}}}